Terminal Aerodrome Forecast
Issued by NWS

Home | Current Version | Previous Version | Text Only | Print | Product List | Glossary On
Versions: 1 2 3 4 5 6 7 8 9 10 11 12 13 14 15
000
FTUS42 KTAE 221400 AAA
TAFECP
TAF AMD
KECP 221417Z 2214/2312 10007KT 4SM RA OVC007
     FM221800 10007KT 4SM -RA OVC005
     FM230000 17003KT 2SM -RA BR OVC002=

USA.gov is the U.S. government's official web portal to all federal, state and local government web resources and services.